Location: Unspecified
(44.4377°N, 88.0525°W)
Time: 05:27:31
(UTC-05:00)

Cosmos 2058 - Visible Passes

Search period start: 05 May 2016 00:00
Search period end: 15 May 2016 00:00
Orbit: 565 x 586 km, 82.5° (Epoch: 04 May)

Date Brightness Start Highest point End Pass type
(mag) Time Alt. Az. Time Alt. Az. Time Alt. Az.
05 May 5.1 04:13:16 10° SE 04:16:45 26° E 04:20:15 10° NNE visible
06 May 4.6 04:16:36 10° SSE 04:20:23 33° E 04:24:13 10° NNE visible
07 May 4.1 04:20:02 10° SSE 04:24:02 45° E 04:28:05 10° NNE visible
08 May 3.5 04:23:33 10° S 04:27:43 61° E 04:31:54 10° NNE visible
09 May 3.0 04:27:11 10° S 04:31:24 82° E 04:35:39 10° N visible
10 May 2.9 04:30:54 10° SSW 04:35:06 74° W 04:39:21 10° N visible
11 May 5.7 03:00:23 10° ESE 03:02:23 13° E 03:04:22 10° NE visible
11 May 3.1 04:34:42 10° SSW 04:38:50 55° W 04:43:00 10° N visible
12 May 5.5 03:03:11 10° SE 03:05:58 17° E 03:08:45 10° NE visible
12 May 3.5 04:38:35 10° SSW 04:42:35 41° WNW 04:46:35 10° N visible
13 May 5.1 03:06:16 10° SE 03:09:33 23° E 03:12:52 10° NE visible
13 May 3.9 04:42:35 10° SW 04:46:21 31° WNW 04:50:07 10° N visible
14 May 4.6 03:10:02 13° SSE 03:13:10 29° E 03:16:50 10° NNE visible
14 May 4.3 04:46:41 10° SW 04:50:07 24° WNW 04:53:34 10° NNW visible
